COSMOS 2219

Last updated on Wed Jun 24 2026 00:02:14 GMT+0000 (Coordinated Universal Time)

1 22219U 92076A 26173.42519671 .00000347 00000+0 20642-3 0 9994 2 22219 71.0587 159.1213 0016851 35.4254 324.7984 14.14102675733182
UTC large
Height (km)
Speed (km/s)
/
Latitude / Longitude
Inclination (degrees)
Orbital Period (minutes)
Azimuth
Elevation
Range (km)
Doppler Factor

Next 0 passes for location: London (51.5072 / 0.1276)

No passes found over London.
COSMOS 2219